Aviation Digital Data Service (ADDS)

Output produced by METARs form (0753 UTC 17 October 2017)
found at http://www.aviationweather.gov/adds/metars/
 
KLNS 170653Z AUTO 01004KT 10SM CLR 06/01 A3028 RMK AO2 SLP255 T00610011
KLNS 170553Z AUTO 36004KT 10SM CLR 07/02 A3027 RMK AO2 SLP250 T00670017 10111 20067 50009
KLNS 170453Z AUTO 35006KT 10SM CLR 08/02 A3027 RMK AO2 SLP251 T00780017 401780072
KLNS 170353Z AUTO 36009KT 10SM CLR 08/03 A3026 RMK AO2 SLP246 T00830028
KLNS 170253Z 35008KT 10SM CLR 09/02 A3024 RMK AO2 SLP241 T00890017 53027
KLNS 170153Z 33008KT 10SM CLR 10/02 A3021 RMK AO2 SLP231 T01000017
KLNS 170053Z 31006KT 10SM CLR 10/03 A3019 RMK AO2 SLP221 T01000033
KLNS 162353Z 32004KT 10SM CLR 11/04 A3016 RMK AO2 SLP213 T01060044 10161 20100 53018
KLNS 162253Z 33004KT 10SM CLR 12/03 A3013 RMK AO2 SLP204 T01170033
KLNS 162153Z 01005KT 10SM CLR 14/04 A3012 RMK AO2 SLP198 T01390039
KLNS 162053Z 34009KT 10SM FEW049 16/03 A3011 RMK AO2 SLP194 T01560033 53007
KLNS 161953Z 33012KT 10SM CLR 16/03 A3010 RMK AO2 SLP190 T01560028
KLNS 161853Z 34012G21KT 10SM FEW049 16/04 A3009 RMK AO2 SLP187 T01560044
KLNS 161753Z 32011KT 10SM SCT042 13/05 A3009 RMK AO2 SLP187 T01330050 10150 20122 50000
KLNS 161653Z 34010G18KT 10SM BKN035 13/06 A3010 RMK AO2 SLP190 T01280061
KLNS 161553Z 33010G17KT 10SM OVC039 13/07 A3008 RMK AO2 SLP184 T01280067
KLNS 161453Z 35011KT 10SM OVC042 13/06 A3008 RMK AO2 SLP186 T01330061 51026
KLNS 161353Z 34015G20KT 10SM SCT042 14/07 A3006 RMK AO2 SLP177 T01390067
KLNS 161253Z 36011G20KT 10SM FEW034 14/08 A3003 RMK AO2 SLP169 T01390083
KLNS 161153Z 32014G20KT 10SM FEW033 OVC041 15/09 A3001 RMK AO2 SLP159 60002 70010 T01500089 10172 20150 51024
KLNS 161053Z 32007KT 10SM SCT033 SCT120 15/12 A2998 RMK AO2 SLP149 T01500117
KLNS 160953Z 29010KT 10SM CLR 16/12 A2997 RMK AO2 SLP148 T01560117
KLNS 160853Z AUTO 29009KT 10SM CLR 16/13 A2993 RMK AO2 SLP134 60002 T01610128 53006
KLNS 160753Z AUTO 29009KT 10SM FEW080 OVC120 16/14 A2992 RMK AO2 RAE0659 SLP128 P0000 T01610139
KLNS 160653Z AUTO 27005KT 10SM -RA BKN080 OVC100 17/16 A2992 RMK AO2 SLP128 P0002 T01670156
KLNS 160553Z AUTO 31008KT 9SM -RA SCT044 BKN055 OVC075 17/15 A2992 RMK AO2 RAB34 SLP128 P0000 60008 T01720150 10217 20172 53016
KLNS 160453Z AUTO 29011KT 10SM SCT026 OVC033 18/16 A2990 RMK AO2 RAE49 SLP124 P0004 T01780161 402280167
KLNS 160423Z AUTO 33014G21KT 3SM RA BR FEW014 BKN020 OVC055 18/17 A2989 RMK AO2 P0003 T01830172
KLNS 160353Z AUTO 30010KT 9SM -RA FEW026 BKN041 OVC048 19/18 A2987 RMK AO2 RAB14 SLP112 P0004 T01940183
KLNS 160348Z AUTO 29009KT 10SM -RA FEW023 SCT030 OVC043 19/19 A2987 RMK AO2 RAB14 P0003
KLNS 160318Z AUTO 32010KT 9SM -RA BKN021 OVC065 21/19 A2986 RMK AO2 RAB14 P0000 T02110194
KLNS 160253Z 23006KT 10SM OVC070 21/19 A2983 RMK AO2 SLP098 T02110194 55005
KLNS 160153Z 20006KT 10SM BKN080 21/19 A2983 RMK AO2 SLP097 T02110194
KLNS 160053Z 00000KT 10SM CLR 21/19 A2983 RMK AO2 SLP098 T02060189
KLNS 152353Z VRB04KT 10SM CLR 21/19 A2984 RMK AO2 SLP103 T02060189 10228 20194 56010
KLNS 152253Z 19005KT 10SM CLR 21/18 A2985 RMK AO2 SLP105 T02110183
KLNS 152153Z 19009KT 10SM CLR 22/18 A2986 RMK AO2 SLP110 T02170183
KLNS 152053Z 19008KT 10SM CLR 23/18 A2987 RMK AO2 SLP113 T02280183 58016